,,,PA_Meas_PMT16A,,PR_Meas_QMR101_102,,RH_Meas_QMH101,,SR_Meas_QMS101,,TA_Meas_QMH101,,GenWind,,GenWind,
date,time,status,PA,status,PR,status,RH,status,SR,status,TA,status,DirAvg,status,SpdAvg,
2009-07-01, 00:00:04,VALID,1011.14,VALID,0,VALID,88.2605,VALID,0,VALID,24.493,VALID,22,VALID,0,
2009-07-01, 00:01:04,VALID,1011.14,VALID,0,VALID,88.3367,VALID,0,VALID,24.4717,VALID,22,VALID,0,
2009-07-01, 00:02:04,VALID,1011.15,VALID,0,VALID,88.3749,VALID,0,VALID,24.4735,VALID,22,VALID,0,
2009-07-01, 00:03:04,VALID,1011.13,VALID,0,VALID,88.4282,VALID,0,VALID,24.4735,VALID,22,VALID,0,
2009-07-01, 00:04:04,VALID,1011.15,VALID,0,VALID,88.4435,VALID,0,VALID,24.4735,VALID,22,VALID,0,
2009-07-01, 00:05:04,VALID,1011.16,VALID,0,VALID,88.474,VALID,0,VALID,24.454,VALID,22,VALID,0,
2009-07-01, 00:06:04,VALID,1011.13,VALID,0,VALID,88.5045,VALID,0,VALID,24.454,VALID,22,VALID,0,
2009-07-01, 00:07:04,VALID,1011.14,VALID,0,VALID,88.5502,VALID,0,VALID,24.4345,VALID,22,VALID,0,
2009-07-01, 00:08:04,VALID,1011.13,VALID,0,VALID,88.5655,VALID,0,VALID,24.415,VALID,22,VALID,0,
2009-07-01, 00:09:04,VALID,1011.09,VALID,0,VALID,88.5884,VALID,0,VALID,24.415,VALID,22,VALID,0,
2009-07-01, 00:10:04,VALID,1011.09,VALID,0,VALID,88.6265,VALID,0,VALID,24.415,VALID,22,VALID,0,
2009-07-01, 00:11:04,VALID,1011.04,VALID,0,VALID,88.6723,VALID,0,VALID,24.3956,VALID,22,VALID,0,
2009-07-01, 00:12:04,VALID,1011.02,VALID,0,VALID,88.7028,VALID,0,VALID,24.3761,VALID,22,VALID,0,
2009-07-01, 00:13:04,VALID,1011.01,VALID,0,VALID,88.7333,VALID,0,VALID,24.3566,VALID,22,VALID,0,
2009-07-01, 00:14:04,VALID,1011.02,VALID,0,VALID,88.7714,VALID,0,VALID,24.3566,VALID,22,VALID,0.325781,
2009-07-01, 00:15:04,VALID,1010.96,VALID,0,VALID,88.7943,VALID,0,VALID,24.3547,VALID,80,VALID,0.540625,
2009-07-01, 00:16:04,VALID,1010.95,VALID,0,VALID,88.8095,VALID,0,VALID,24.3352,VALID,81,VALID,0.489062,
2009-07-01, 00:17:04,VALID,1010.97,VALID,0,VALID,88.8019,VALID,0,VALID,24.3547,VALID,80,VALID,0.637891,
2009-07-01, 00:18:04,VALID,1010.95,VALID,0,VALID,88.8095,VALID,0,VALID,24.3158,VALID,80,VALID,0.633594,
2009-07-01, 00:19:04,VALID,1010.94,VALID,0,VALID,88.84,VALID,0.105969,VALID,24.3352,VALID,80,VALID,0.590234,
2009-07-01, 00:20:04,VALID,1010.92,VALID,0,VALID,88.8095,VALID,0,VALID,24.3352,VALID,80,VALID,0.530078,
2009-07-01, 00:21:04,VALID,1010.92,VALID,0,VALID,88.8095,VALID,0,VALID,24.3761,VALID,79,VALID,0.624609,
2009-07-01, 00:22:04,VALID,1010.92,VALID,0,VALID,88.8095,VALID,0,VALID,24.3547,VALID,78,VALID,0.619922,
2009-07-01, 00:23:04,VALID,1010.88,VALID,0,VALID,88.8019,VALID,0,VALID,24.3547,VALID,70,VALID,0.396875,
2009-07-01, 00:24:04,VALID,1010.88,VALID,0,VALID,88.7714,VALID,0,VALID,24.3547,VALID,70,VALID,0.405469,
2009-07-01, 00:25:04,VALID,1010.88,VALID,0,VALID,88.718,VALID,0,VALID,24.3742,VALID,70,VALID,0.145703,
2009-07-01, 00:26:04,VALID,1010.87,VALID,0,VALID,88.6799,VALID,0,VALID,24.3547,VALID,70,VALID,0.0285156,
2009-07-01, 00:27:04,VALID,1010.89,VALID,0,VALID,88.6341,VALID,0.105969,VALID,24.3547,VALID,70,VALID,0,
2009-07-01, 00:28:04,VALID,1010.91,VALID,0,VALID,88.6036,VALID,0,VALID,24.3547,VALID,70,VALID,0,
2009-07-01, 00:29:04,VALID,1010.9,VALID,0,VALID,88.6036,VALID,0,VALID,24.3547,VALID,70,VALID,0,
2009-07-01, 00:30:04,VALID,1010.91,VALID,0,VALID,88.5579,VALID,0,VALID,24.3352,VALID,70,VALID,0,
2009-07-01, 00:31:04,VALID,1010.9,VALID,0,VALID,88.535,VALID,0,VALID,24.3158,VALID,70,VALID,0,
2009-07-01, 00:32:04,VALID,1010.91,VALID,0,VALID,88.5197,VALID,0,VALID,24.3158,VALID,70,VALID,0,
2009-07-01, 00:33:04,VALID,1010.92,VALID,0,VALID,88.535,VALID,0,VALID,24.3158,VALID,70,VALID,0,
2009-07-01, 00:34:04,VALID,1010.9,VALID,0,VALID,88.5579,VALID,0,VALID,24.2963,VALID,70,VALID,0,
2009-07-01, 00:35:04,VALID,1010.92,VALID,0,VALID,88.596,VALID,0,VALID,24.2963,VALID,70,VALID,0,
2009-07-01, 00:36:04,VALID,1010.93,VALID,0,VALID,88.6265,VALID,0,VALID,24.2963,VALID,35,VALID,0,
2009-07-01, 00:37:04,VALID,1010.92,VALID,0,VALID,88.6265,VALID,0,VALID,24.2768,VALID,36,VALID,0,
2009-07-01, 00:38:04,VALID,1010.94,VALID,0,VALID,88.6494,VALID,0,VALID,24.2573,VALID,35,VALID,0,
2009-07-01, 00:39:04,VALID,1010.9,VALID,0,VALID,88.6951,VALID,0,VALID,24.236,VALID,53,VALID,0.446875,
2009-07-01, 00:40:04,VALID,1010.92,VALID,0,VALID,88.7256,VALID,0,VALID,24.2378,VALID,49,VALID,0.251172,
2009-07-01, 00:41:04,VALID,1010.92,VALID,0,VALID,88.718,VALID,0.105969,VALID,24.2183,VALID,49,VALID,0.24375,
2009-07-01, 00:42:04,VALID,1010.9,VALID,0,VALID,88.7485,VALID,0,VALID,24.1988,VALID,26,VALID,0.175781,
2009-07-01, 00:43:04,VALID,1010.9,VALID,0,VALID,88.7638,VALID,0,VALID,24.1793,VALID,17,VALID,0.0328125,
2009-07-01, 00:44:04,VALID,1010.89,VALID,0,VALID,88.7638,VALID,0,VALID,24.1793,VALID,17,VALID,0.00859375,
2009-07-01, 00:45:04,VALID,1010.9,VALID,0,VALID,88.7866,VALID,0,VALID,24.1793,VALID,17,VALID,0,
2009-07-01, 00:46:04,VALID,1010.89,VALID,0,VALID,88.8095,VALID,0.105969,VALID,24.1404,VALID,17,VALID,0,
2009-07-01, 00:47:04,VALID,1010.85,VALID,0,VALID,88.8172,VALID,0,VALID,24.1209,VALID,17,VALID,0,
2009-07-01, 00:48:04,VALID,1010.82,VALID,0,VALID,88.8553,VALID,0,VALID,24.1209,VALID,17,VALID,0.090625,
2009-07-01, 00:49:04,VALID,1010.8,VALID,0,VALID,88.8934,VALID,0,VALID,24.1032,VALID,17,VALID,0.384766,
2009-07-01, 00:50:04,VALID,1010.81,VALID,0,VALID,88.9163,VALID,0,VALID,24.0624,VALID,19,VALID,0.396094,
2009-07-01, 00:51:04,VALID,1010.79,VALID,0,VALID,88.9468,VALID,0.105969,VALID,24.0429,VALID,20,VALID,0.384375,
2009-07-01, 00:52:04,VALID,1010.78,VALID,0,VALID,88.9544,VALID,0,VALID,24.0235,VALID,40,VALID,0.394922,
2009-07-01, 00:53:04,VALID,1010.8,VALID,0,VALID,88.9773,VALID,0,VALID,24.004,VALID,50,VALID,0.466016,
2009-07-01, 00:54:04,VALID,1010.77,VALID,0,VALID,89.0078,VALID,0,VALID,24.004,VALID,51,VALID,0.455859,
2009-07-01, 00:55:04,VALID,1010.76,VALID,0,VALID,89.0612,VALID,0.105969,VALID,24.004,VALID,52,VALID,0.435547,
2009-07-01, 00:56:04,VALID,1010.79,VALID,0,VALID,89.0688,VALID,0,VALID,23.9845,VALID,52,VALID,0.215625,
2009-07-01, 00:57:04,VALID,1010.78,VALID,0,VALID,89.0993,VALID,0,VALID,23.9845,VALID,52,VALID,0.200391,
2009-07-01, 00:58:04,VALID,1010.78,VALID,0,VALID,89.1146,VALID,0,VALID,23.9845,VALID,52,VALID,0.346484,
2009-07-01, 00:59:04,VALID,1010.79,VALID,0,VALID,89.1298,VALID,0,VALID,23.965,VALID,46,VALID,0.0875,
2009-07-01, 01:00:04,VALID,1010.8,VALID,0,VALID,89.1527,VALID,0,VALID,23.9455,VALID,22,VALID,0.388672,
2009-07-01, 01:01:04,VALID,1010.83,VALID,0,VALID,89.1832,VALID,0,VALID,23.926,VALID,22,VALID,0.109766,
2009-07-01, 01:02:04,VALID,1010.79,VALID,0,VALID,89.2061,VALID,0,VALID,23.9278,VALID,22,VALID,0,
2009-07-01, 01:03:04,VALID,1010.77,VALID,0,VALID,89.2518,VALID,0.105969,VALID,23.8871,VALID,22,VALID,0,
2009-07-01, 01:04:04,VALID,1010.77,VALID,0,VALID,89.2518,VALID,0,VALID,23.8676,VALID,22,VALID,0,
2009-07-01, 01:05:04,VALID,1010.78,VALID,0,VALID,89.2823,VALID,0,VALID,23.8481,VALID,22,VALID,0,
2009-07-01, 01:06:04,VALID,1010.74,VALID,0,VALID,89.2976,VALID,0,VALID,23.8286,VALID,22,VALID,0,
2009-07-01, 01:07:04,VALID,1010.7,VALID,0,VALID,89.3128,VALID,0.105969,VALID,23.8286,VALID,22,VALID,0,
2009-07-01, 01:08:04,VALID,1010.67,VALID,0,VALID,89.3662,VALID,0,VALID,23.8091,VALID,62,VALID,0.464453,
2009-07-01, 01:09:04,VALID,1010.68,VALID,0,VALID,89.3815,VALID,0.105969,VALID,23.8091,VALID,62,VALID,0.128516,
2009-07-01, 01:10:04,VALID,1010.68,VALID,0,VALID,89.4043,VALID,0.105969,VALID,23.8091,VALID,62,VALID,0,
2009-07-01, 01:11:04,VALID,1010.64,VALID,0,VALID,89.4425,VALID,0,VALID,23.7701,VALID,62,VALID,0,
2009-07-01, 01:12:04,VALID,1010.59,VALID,0,VALID,89.4425,VALID,0.105969,VALID,23.7701,VALID,62,VALID,0,
2009-07-01, 01:13:04,VALID,1010.55,VALID,0,VALID,89.4806,VALID,0.105969,VALID,23.7896,VALID,62,VALID,0.00078125,
2009-07-01, 01:14:04,VALID,1010.54,VALID,0,VALID,89.5111,VALID,0.105969,VALID,23.7701,VALID,56,VALID,0.216406,
2009-07-01, 01:15:04,VALID,1010.54,VALID,0,VALID,89.5492,VALID,0,VALID,23.7507,VALID,56,VALID,0.0304688,
2009-07-01, 01:16:04,VALID,1010.54,VALID,0,VALID,89.5645,VALID,0,VALID,23.772,VALID,56,VALID,0.147266,
2009-07-01, 01:17:04,VALID,1010.52,VALID,0,VALID,89.5797,VALID,0,VALID,23.7701,VALID,56,VALID,0.0429688,
2009-07-01, 01:18:04,VALID,1010.54,VALID,0,VALID,89.6102,VALID,0,VALID,23.7914,VALID,56,VALID,0.239063,
2009-07-01, 01:19:04,VALID,1010.54,VALID,0,VALID,89.6102,VALID,0,VALID,23.7507,VALID,56,VALID,0.335156,
2009-07-01, 01:20:04,VALID,1010.54,VALID,0,VALID,89.6179,VALID,0,VALID,23.772,VALID,55,VALID,0.307813,
2009-07-01, 01:21:04,VALID,1010.54,VALID,0,VALID,89.6255,VALID,0,VALID,23.772,VALID,43,VALID,0.275,
2009-07-01, 01:22:04,VALID,1010.54,VALID,0,VALID,89.6407,VALID,0,VALID,23.772,VALID,43,VALID,0,
2009-07-01, 01:23:04,VALID,1010.53,VALID,0,VALID,89.6484,VALID,0,VALID,23.7312,VALID,43,VALID,0,
2009-07-01, 01:24:04,VALID,1010.52,VALID,0,VALID,89.6484,VALID,0,VALID,23.733,VALID,43,VALID,0,
2009-07-01, 01:25:04,VALID,1010.51,VALID,0,VALID,89.656,VALID,0,VALID,23.733,VALID,43,VALID,0,
2009-07-01, 01:26:04,VALID,1010.5,VALID,0,VALID,89.6712,VALID,0,VALID,23.7135,VALID,43,VALID,0,
2009-07-01, 01:27:04,VALID,1010.49,VALID,0,VALID,89.6712,VALID,0,VALID,23.694,VALID,43,VALID,0,
2009-07-01, 01:28:04,VALID,1010.51,VALID,0,VALID,89.6484,VALID,0,VALID,23.6745,VALID,43,VALID,0,
2009-07-01, 01:29:04,VALID,1010.52,VALID,0,VALID,89.6789,VALID,0,VALID,23.655,VALID,43,VALID,0,
2009-07-01, 01:30:04,VALID,1010.54,VALID,0,VALID,89.6636,VALID,0,VALID,23.6356,VALID,68,VALID,0,
2009-07-01, 01:31:04,VALID,1010.52,VALID,0,VALID,89.6636,VALID,0,VALID,23.655,VALID,80,VALID,0,
2009-07-01, 01:32:04,VALID,1010.58,VALID,0,VALID,89.6789,VALID,0,VALID,23.655,VALID,80,VALID,0.535937,
2009-07-01, 01:33:04,VALID,1010.58,VALID,0,VALID,89.7094,VALID,0,VALID,23.655,VALID,87,VALID,0.902344,
2009-07-01, 01:34:04,VALID,1010.58,VALID,0,VALID,89.717,VALID,0,VALID,23.6745,VALID,99,VALID,0.930859,
2009-07-01, 01:35:04,VALID,1010.54,VALID,0,VALID,89.7094,VALID,0,VALID,23.694,VALID,85,VALID,1.16914,
2009-07-01, 01:36:04,VALID,1010.58,VALID,0,VALID,89.717,VALID,0,VALID,23.7135,VALID,75,VALID,0.850391,
2009-07-01, 01:37:04,VALID,1010.57,VALID,0,VALID,89.7475,VALID,0,VALID,23.6922,VALID,80,VALID,0.561328,
2009-07-01, 01:38:04,VALID,1010.55,VALID,0,VALID,89.7399,VALID,0,VALID,23.7135,VALID,55,VALID,0.600391,
2009-07-01, 01:39:04,VALID,1010.55,VALID,0,VALID,89.7399,VALID,0,VALID,23.733,VALID,50,VALID,0.619141,
2009-07-01, 01:40:04,VALID,1010.55,VALID,0,VALID,89.7475,VALID,0,VALID,23.7135,VALID,59,VALID,0.870703,
2009-07-01, 01:41:04,VALID,1010.53,VALID,0,VALID,89.7551,VALID,0,VALID,23.7135,VALID,53,VALID,0.955469,
2009-07-01, 01:42:04,VALID,1010.56,VALID,0,VALID,89.7475,VALID,0,VALID,23.7135,VALID,61,VALID,0.66875,
2009-07-01, 01:43:04,VALID,1010.55,VALID,0,VALID,89.7475,VALID,0,VALID,23.6958,VALID,64,VALID,0.582422,
2009-07-01, 01:44:04,VALID,1010.52,VALID,0,VALID,89.7627,VALID,0,VALID,23.6745,VALID,67,VALID,1.1375,
2009-07-01, 01:45:04,VALID,1010.5,VALID,0,VALID,89.7551,VALID,0,VALID,23.6922,VALID,80,VALID,0.617969,
2009-07-01, 01:46:04,VALID,1010.51,VALID,0,VALID,89.7475,VALID,0,VALID,23.6922,VALID,72,VALID,0.182031,
2009-07-01, 01:47:04,VALID,1010.5,VALID,0,VALID,89.7246,VALID,0,VALID,23.6727,VALID,95,VALID,0.583984,
2009-07-01, 01:48:04,VALID,1010.47,VALID,0,VALID,89.7246,VALID,0,VALID,23.6532,VALID,77,VALID,0.817578,
2009-07-01, 01:49:04,VALID,1010.48,VALID,0,VALID,89.717,VALID,0,VALID,23.6532,VALID,80,VALID,1.33047,
2009-07-01, 01:50:04,VALID,1010.45,VALID,0,VALID,89.7017,VALID,0,VALID,23.6745,VALID,85,VALID,1.1543,
2009-07-01, 01:51:04,VALID,1010.43,VALID,0,VALID,89.6865,VALID,0,VALID,23.6727,VALID,72,VALID,1.39219,
2009-07-01, 01:52:04,VALID,1010.41,VALID,0,VALID,89.656,VALID,0,VALID,23.655,VALID,97,VALID,0.669141,
2009-07-01, 01:53:04,VALID,1010.4,VALID,0,VALID,89.6102,VALID,0,VALID,23.6338,VALID,99,VALID,0.393359,
2009-07-01, 01:54:04,VALID,1010.37,VALID,0,VALID,89.6026,VALID,0,VALID,23.6143,VALID,89,VALID,0.849219,
2009-07-01, 01:55:04,VALID,1010.34,VALID,0,VALID,89.595,VALID,0,VALID,23.655,VALID,95,VALID,0.783984,
2009-07-01, 01:56:04,VALID,1010.33,VALID,0,VALID,89.5721,VALID,0,VALID,23.6338,VALID,84,VALID,0.930859,
2009-07-01, 01:57:04,VALID,1010.3,VALID,0,VALID,89.5416,VALID,0,VALID,23.655,VALID,100,VALID,0.543359,
2009-07-01, 01:58:04,VALID,1010.27,VALID,0,VALID,89.5187,VALID,0,VALID,23.6338,VALID,71,VALID,0.504687,
2009-07-01, 01:59:04,VALID,1010.24,VALID,0,VALID,89.5111,VALID,0,VALID,23.655,VALID,77,VALID,0.784375,
2009-07-01, 02:00:04,VALID,1010.24,VALID,0,VALID,89.5111,VALID,0.105969,VALID,23.6532,VALID,70,VALID,0.748828,
2009-07-01, 02:01:04,VALID,1010.25,VALID,0,VALID,89.4806,VALID,0.105969,VALID,23.6709,VALID,83,VALID,0.798047,
2009-07-01, 02:02:04,VALID,1010.24,VALID,0,VALID,89.473,VALID,0.105969,VALID,23.6709,VALID,76,VALID,0.653516,
2009-07-01, 02:03:04,VALID,1010.25,VALID,0,VALID,89.4501,VALID,0.105969,VALID,23.6922,VALID,83,VALID,1.05508,
2009-07-01, 02:04:04,VALID,1010.23,VALID,0,VALID,89.4577,VALID,0.105969,VALID,23.6709,VALID,68,VALID,1.03828,
2009-07-01, 02:05:04,VALID,1010.21,VALID,0,VALID,89.4272,VALID,0.105969,VALID,23.6727,VALID,68,VALID,0.694141,
2009-07-01, 02:06:04,VALID,1010.19,VALID,0,VALID,89.4043,VALID,0,VALID,23.6727,VALID,59,VALID,0.0484375,
2009-07-01, 02:07:04,VALID,1010.18,VALID,0,VALID,89.4043,VALID,0.105969,VALID,23.6727,VALID,59,VALID,0.196875,
2009-07-01, 02:08:04,VALID,1010.15,VALID,0,VALID,89.3967,VALID,0.105969,VALID,23.6727,VALID,59,VALID,0.274219,
2009-07-01, 02:09:04,VALID,1010.2,VALID,0,VALID,89.3891,VALID,0.105969,VALID,23.6532,VALID,60,VALID,0.610156,
2009-07-01, 02:10:04,VALID,1010.24,VALID,0,VALID,89.3967,VALID,0.105969,VALID,23.6532,VALID,74,VALID,0.798437,
2009-07-01, 02:11:04,VALID,1010.23,VALID,0,VALID,89.3967,VALID,0.105969,VALID,23.6125,VALID,71,VALID,0.928906,
2009-07-01, 02:12:04,VALID,1010.24,VALID,0,VALID,89.4043,VALID,0.105969,VALID,23.6338,VALID,99,VALID,0.628906,
2009-07-01, 02:13:04,VALID,1010.25,VALID,0,VALID,89.4272,VALID,0.105969,VALID,23.6125,VALID,102,VALID,0.548047,
2009-07-01, 02:14:04,VALID,1010.26,VALID,0,VALID,89.412,VALID,0.105969,VALID,23.6125,VALID,101,VALID,0.0449219,
2009-07-01, 02:15:04,VALID,1010.28,VALID,0,VALID,89.4043,VALID,0.105969,VALID,23.6125,VALID,100,VALID,0.715625,
2009-07-01, 02:16:04,VALID,1010.26,VALID,0,VALID,89.4043,VALID,0.105969,VALID,23.593,VALID,98,VALID,0.448438,
2009-07-01, 02:17:04,VALID,1010.3,VALID,0,VALID,89.412,VALID,0.105969,VALID,23.6125,VALID,92,VALID,0.249219,
2009-07-01, 02:18:04,VALID,1010.27,VALID,0,VALID,89.4196,VALID,0.105969,VALID,23.593,VALID,94,VALID,0.692969,
2009-07-01, 02:19:04,VALID,1010.22,VALID,0,VALID,89.4196,VALID,0,VALID,23.5948,VALID,96,VALID,0.570703,
2009-07-01, 02:20:04,VALID,1010.21,VALID,0,VALID,89.4425,VALID,0.105969,VALID,23.6143,VALID,80,VALID,0.775,
2009-07-01, 02:21:04,VALID,1010.18,VALID,0,VALID,89.4348,VALID,0.105969,VALID,23.6338,VALID,84,VALID,0.230078,
2009-07-01, 02:22:04,VALID,1010.19,VALID,0,VALID,89.4196,VALID,0.105969,VALID,23.6338,VALID,88,VALID,0.677344,
2009-07-01, 02:23:04,VALID,1010.14,VALID,0,VALID,89.4501,VALID,0.105969,VALID,23.6532,VALID,93,VALID,0.421484,
2009-07-01, 02:24:04,VALID,1010.15,VALID,0,VALID,89.4272,VALID,0.105969,VALID,23.6125,VALID,102,VALID,0.292188,
2009-07-01, 02:25:04,VALID,1010.12,VALID,0,VALID,89.3586,VALID,0.105969,VALID,23.5948,VALID,103,VALID,0.503125,
2009-07-01, 02:26:04,VALID,1010.12,VALID,0,VALID,89.3357,VALID,0.105969,VALID,23.554,VALID,127,VALID,0.549609,
2009-07-01, 02:27:04,VALID,1010.1,VALID,0,VALID,89.2976,VALID,0.105969,VALID,23.5151,VALID,149,VALID,0.541406,
2009-07-01, 02:28:04,VALID,1010.1,VALID,0,VALID,89.2823,VALID,0,VALID,23.5169,VALID,158,VALID,0.575391,
2009-07-01, 02:29:04,VALID,1010.08,VALID,0,VALID,89.2747,VALID,0.105969,VALID,23.4956,VALID,158,VALID,0.516406,
2009-07-01, 02:30:04,VALID,1010.09,VALID,0,VALID,89.3128,VALID,0,VALID,23.4584,VALID,158,VALID,0.439844,
2009-07-01, 02:31:04,VALID,1010.09,VALID,0,VALID,89.3281,VALID,0,VALID,23.4797,VALID,158,VALID,0.321875,
2009-07-01, 02:32:04,VALID,1010.09,VALID,0,VALID,89.3586,VALID,0,VALID,23.4602,VALID,158,VALID,0.358594,
2009-07-01, 02:33:04,VALID,1010.06,VALID,0,VALID,89.412,VALID,0,VALID,23.4602,VALID,132,VALID,0.289063,
2009-07-01, 02:34:04,VALID,1010.05,VALID,0,VALID,89.4348,VALID,0,VALID,23.4602,VALID,132,VALID,0,
2009-07-01, 02:35:04,VALID,1010.04,VALID,0,VALID,89.4501,VALID,0,VALID,23.4389,VALID,132,VALID,0.107813,
2009-07-01, 02:36:04,VALID,1010.05,VALID,0,VALID,89.473,VALID,0,VALID,23.4194,VALID,131,VALID,0.451172,
2009-07-01, 02:37:04,VALID,1010.05,VALID,0,VALID,89.4882,VALID,0,VALID,23.4,VALID,131,VALID,0.455859,
2009-07-01, 02:38:04,VALID,1010.06,VALID,0,VALID,89.4882,VALID,0,VALID,23.4,VALID,131,VALID,0.372656,
2009-07-01, 02:39:04,VALID,1010.08,VALID,0,VALID,89.5187,VALID,0,VALID,23.3805,VALID,131,VALID,0.337891,
2009-07-01, 02:40:04,VALID,1010.09,VALID,0,VALID,89.4958,VALID,0,VALID,23.3805,VALID,131,VALID,0,
2009-07-01, 02:41:04,VALID,1010.09,VALID,0,VALID,89.5416,VALID,0,VALID,23.4212,VALID,131,VALID,0,
2009-07-01, 02:42:04,VALID,1010.1,VALID,0,VALID,89.5568,VALID,0,VALID,23.4212,VALID,131,VALID,0,
2009-07-01, 02:43:04,VALID,1010.09,VALID,0,VALID,89.5797,VALID,0,VALID,23.4194,VALID,131,VALID,0,
2009-07-01, 02:44:04,VALID,1010.1,VALID,0,VALID,89.6026,VALID,0,VALID,23.4407,VALID,98,VALID,0.782031,
2009-07-01, 02:45:04,VALID,1010.08,VALID,0,VALID,89.6179,VALID,0,VALID,23.4389,VALID,90,VALID,0.575,
2009-07-01, 02:46:04,VALID,1010.07,VALID,0,VALID,89.595,VALID,0.105969,VALID,23.4584,VALID,86,VALID,0.526172,
2009-07-01, 02:47:04,VALID,1010.05,VALID,0,VALID,89.6102,VALID,0.105969,VALID,23.4372,VALID,86,VALID,0.432031,
2009-07-01, 02:48:04,VALID,1010.06,VALID,0,VALID,89.595,VALID,0.105969,VALID,23.4584,VALID,68,VALID,0.719531,
2009-07-01, 02:49:04,VALID,1010.09,VALID,0,VALID,89.5873,VALID,0.105969,VALID,23.4584,VALID,73,VALID,0.717969,
2009-07-01, 02:50:04,VALID,1010.06,VALID,0,VALID,89.6026,VALID,0.105969,VALID,23.4389,VALID,88,VALID,0.620313,
2009-07-01, 02:51:04,VALID,1010.07,VALID,0,VALID,89.595,VALID,0.105969,VALID,23.4584,VALID,56,VALID,0.540234,
2009-07-01, 02:52:04,VALID,1010.11,VALID,0,VALID,89.595,VALID,0.105969,VALID,23.4389,VALID,88,VALID,0.564062,
2009-07-01, 02:53:04,VALID,1010.14,VALID,0,VALID,89.595,VALID,0,VALID,23.4389,VALID,102,VALID,0,
2009-07-01, 02:54:04,VALID,1010.16,VALID,0,VALID,89.5797,VALID,0.105969,VALID,23.4194,VALID,84,VALID,0.132813,
2009-07-01, 02:55:04,VALID,1010.14,VALID,0,VALID,89.5568,VALID,0.105969,VALID,23.4389,VALID,70,VALID,0.551172,
2009-07-01, 02:56:04,VALID,1010.16,VALID,0,VALID,89.5645,VALID,0.105969,VALID,23.3982,VALID,69,VALID,0.517187,
2009-07-01, 02:57:04,VALID,1010.16,VALID,0,VALID,89.5797,VALID,0.105969,VALID,23.4194,VALID,81,VALID,0.474609,
2009-07-01, 02:58:04,VALID,1010.1,VALID,0,VALID,89.5721,VALID,0,VALID,23.4194,VALID,81,VALID,0.511719,
2009-07-01, 02:59:04,VALID,1010.14,VALID,0,VALID,89.5645,VALID,0.105969,VALID,23.4194,VALID,81,VALID,0.386328,
2009-07-01, 03:00:04,VALID,1010.11,VALID,0,VALID,89.5721,VALID,0,VALID,23.4212,VALID,81,VALID,0.447656,
2009-07-01, 03:01:04,VALID,1010.1,VALID,0,VALID,89.5873,VALID,0,VALID,23.4212,VALID,83,VALID,0.394141,
2009-07-01, 03:02:04,VALID,1010.09,VALID,0,VALID,89.5568,VALID,0,VALID,23.4017,VALID,83,VALID,0.410937,
2009-07-01, 03:03:04,VALID,1010.07,VALID,0,VALID,89.5873,VALID,0,VALID,23.4017,VALID,79,VALID,0.3875,
2009-07-01, 03:04:04,VALID,1010.09,VALID,0,VALID,89.5645,VALID,0,VALID,23.4017,VALID,70,VALID,0.548828,
2009-07-01, 03:05:04,VALID,1010.1,VALID,0,VALID,89.5797,VALID,0,VALID,23.4017,VALID,70,VALID,0.175391,
2009-07-01, 03:06:04,VALID,1010.1,VALID,0,VALID,89.5873,VALID,0,VALID,23.3823,VALID,70,VALID,0.0160156,
2009-07-01, 03:07:04,VALID,1010.1,VALID,0,VALID,89.595,VALID,0,VALID,23.3823,VALID,70,VALID,0.3625,
2009-07-01, 03:08:04,VALID,1010.14,VALID,0,VALID,89.595,VALID,0,VALID,23.3823,VALID,70,VALID,0.433594,
2009-07-01, 03:09:04,VALID,1010.14,VALID,0,VALID,89.6026,VALID,0,VALID,23.3823,VALID,68,VALID,0.245703,
2009-07-01, 03:10:04,VALID,1010.14,VALID,0,VALID,89.595,VALID,0,VALID,23.3628,VALID,69,VALID,0.755469,
2009-07-01, 03:11:04,VALID,1010.15,VALID,0,VALID,89.6026,VALID,0,VALID,23.361,VALID,69,VALID,0.395312,
2009-07-01, 03:12:04,VALID,1010.17,VALID,0,VALID,89.6026,VALID,0,VALID,23.3628,VALID,69,VALID,0.476172,
2009-07-01, 03:13:04,VALID,1010.17,VALID,0,VALID,89.6407,VALID,0,VALID,23.3628,VALID,54,VALID,0.5,
2009-07-01, 03:14:04,VALID,1010.15,VALID,0,VALID,89.6179,VALID,0,VALID,23.3628,VALID,74,VALID,0.564062,
2009-07-01, 03:15:04,VALID,1010.17,VALID,0,VALID,89.6179,VALID,0,VALID,23.3628,VALID,65,VALID,0.407422,
2009-07-01, 03:16:04,VALID,1010.14,VALID,0,VALID,89.6331,VALID,0,VALID,23.3433,VALID,38,VALID,0.117188,
2009-07-01, 03:17:04,VALID,1010.12,VALID,0,VALID,89.6179,VALID,0,VALID,23.3238,VALID,38,VALID,0.301562,
2009-07-01, 03:18:04,VALID,1010.09,VALID,0,VALID,89.6255,VALID,0,VALID,23.3238,VALID,38,VALID,0.269141,
2009-07-01, 03:19:04,VALID,1010.08,VALID,0,VALID,89.6407,VALID,0,VALID,23.3256,VALID,38,VALID,0.2,
2009-07-01, 03:20:04,VALID,1010.1,VALID,0,VALID,89.6484,VALID,0,VALID,23.3043,VALID,38,VALID,0.161719,
2009-07-01, 03:21:04,VALID,1010.11,VALID,0,VALID,89.6407,VALID,0,VALID,23.2848,VALID,38,VALID,0.196094,
2009-07-01, 03:22:04,VALID,1010.11,VALID,0,VALID,89.6484,VALID,0,VALID,23.2459,VALID,38,VALID,0,
2009-07-01, 03:23:04,VALID,1010.14,VALID,0,VALID,89.6636,VALID,0,VALID,23.2476,VALID,38,VALID,0.290625,
2009-07-01, 03:24:04,VALID,1010.15,VALID,0,VALID,89.6789,VALID,0,VALID,23.2459,VALID,68,VALID,0.421094,
2009-07-01, 03:25:04,VALID,1010.15,VALID,0,VALID,89.6636,VALID,0,VALID,23.2264,VALID,68,VALID,0.445703,
2009-07-01, 03:26:04,VALID,1010.16,VALID,0,VALID,89.6865,VALID,0,VALID,23.2459,VALID,61,VALID,0.587891,
2009-07-01, 03:27:04,VALID,1010.15,VALID,0,VALID,89.7399,VALID,0,VALID,23.2264,VALID,59,VALID,0.181641,
2009-07-01, 03:28:04,VALID,1010.17,VALID,0,VALID,89.7399,VALID,0,VALID,23.2264,VALID,59,VALID,0.0164062,
2009-07-01, 03:29:05,VALID,1010.14,VALID,0,VALID,89.7551,VALID,0,VALID,23.2264,VALID,58,VALID,0.233984,
2009-07-01, 03:30:05,VALID,1010.18,VALID,0,VALID,89.7627,VALID,0.105969,VALID,23.2246,VALID,32,VALID,0.373828,
2009-07-01, 03:31:05,VALID,1010.2,VALID,0,VALID,89.7627,VALID,0.105969,VALID,23.2246,VALID,41,VALID,0.369922,
2009-07-01, 03:32:05,VALID,1010.2,VALID,0,VALID,89.7932,VALID,0.105969,VALID,23.2246,VALID,75,VALID,0.289453,
2009-07-01, 03:33:05,VALID,1010.23,VALID,0,VALID,89.7856,VALID,0.105969,VALID,23.2246,VALID,60,VALID,0,
2009-07-01, 03:34:05,VALID,1010.23,VALID,0,VALID,89.8085,VALID,0.105969,VALID,23.2246,VALID,52,VALID,0,
2009-07-01, 03:35:05,VALID,1010.21,VALID,0,VALID,89.8161,VALID,0.105969,VALID,23.2246,VALID,52,VALID,0,
2009-07-01, 03:36:05,VALID,1010.21,VALID,0,VALID,89.839,VALID,0.105969,VALID,23.2246,VALID,52,VALID,0,
2009-07-01, 03:37:05,VALID,1010.19,VALID,0,VALID,89.8314,VALID,0.105969,VALID,23.2246,VALID,52,VALID,0,
2009-07-01, 03:38:05,VALID,1010.18,VALID,0,VALID,89.8466,VALID,0.105969,VALID,23.2051,VALID,52,VALID,0,
2009-07-01, 03:39:05,VALID,1010.19,VALID,0,VALID,89.8619,VALID,0.105969,VALID,23.2051,VALID,51,VALID,0,
2009-07-01, 03:40:05,VALID,1010.18,VALID,0,VALID,89.8619,VALID,0.105969,VALID,23.2051,VALID,55,VALID,0,
2009-07-01, 03:41:05,VALID,1010.16,VALID,0,VALID,89.8619,VALID,0.211938,VALID,23.1644,VALID,68,VALID,0,
2009-07-01, 03:42:05,VALID,1010.14,VALID,0,VALID,89.8619,VALID,0.105969,VALID,23.1662,VALID,68,VALID,0,
2009-07-01, 03:43:05,VALID,1010.11,VALID,0,VALID,89.8848,VALID,0.105969,VALID,23.1662,VALID,89,VALID,0.326172,
2009-07-01, 03:44:05,VALID,1010.11,VALID,0,VALID,89.8771,VALID,0.105969,VALID,23.1662,VALID,89,VALID,0,
2009-07-01, 03:45:05,VALID,1010.1,VALID,0,VALID,89.9076,VALID,0.105969,VALID,23.1662,VALID,90,VALID,0.360547,
2009-07-01, 03:46:05,VALID,1010.08,VALID,0,VALID,89.9076,VALID,0.105969,VALID,23.1857,VALID,78,VALID,0.653125,